RH
34 32 30 31 29 29 28 29 32 35 37 38 38 36 36 39 46 57 58 52 54 58
32 31 31 30 27 26 29 31 35 35 36 36 37 36 36 38 39 51 61 56 52 55
31 31 30 26 23 23 25 28 31 32 32 34 34 34 37 39 40 41 58 63 60 53
31 28 23 20 20 21 23 23 23 24 25 27 28 32 36 41 43 42 43 59 65 61
25 20 18 18 22 25 26 27 26 26 24 24 26 30 36 42 46 45 42 43 59 65
20 19 19 21 24 25 26 27 28 29 29 28 28 32 38 43 46 48 46 43 43 56
19 20 21 23 24 26 26 26 25 26 27 30 32 33 37 45 48 49 47 47 45 44
20 22 23 24 24 24 25 25 26 27 27 28 30 34 42 49 51 51 50 50 48 45
24 25 24 25 25 25 27 28 30 31 32 31 33 35 41 51 55 56 55 54 51 49
26 25 25 25 27 29 32 35 37 38 38 38 39 41 46 53 57 58 57 56 54 52
27 26 27 28 32 36 41 46 47 46 47 46 46 50 55 60 60 60 60 59 57 56
29 29 31 35 41 49 54 58 58 56 54 54 54 59 63 66 66 65 64 63 61 60
31 33 38 46 55 61 67 67 65 61 62 63 66 73 74 75 74 72 70 68 66 65
34 39 48 59 68 72 73 71 67 67 72 77 80 83 85 86 83 82 79 75 73 71